Change the Weather History Date:

Sunday, November 4, 2012

  Actual Average Record
Temperature  
Mean Temperature 33 °F -  
Max Temperature 40 °F 47 °F 69 °F (2005)
Min Temperature 26 °F 32 °F 21 °F (2006)
Degree Days  
Heating Degree Days 32    
Moisture  
Dew Point 26 °F    
Average Humidity 74    
Maximum Humidity 92    
Minimum Humidity 59    
Precipitation  
Precipitation 0.00 in - - ()
Sea Level Pressure  
Sea Level Pressure 30.18 in    
Wind  
Wind Speed 6 mph (NW)    
Max Wind Speed 10 mph    
Max Gust Speed -    
Visibility 10 miles    
Events      
Averages and records for this station are not official NWS values.
T = Trace of Precipitation, MM = Missing Value Source: NWS Daily Summary

Daily Weather History Graph

Daily Weather History Graph

Search for Another Location

Airport or City:

Trip Planner

Search our weather history database for the weather conditions in past years. The results will help you decide how hot, cold, wet, or windy it might be!

Date:

Astronomy

Nov. 04, 2012 Rise Set
Actual Time 7:15 AM EST 5:18 PM EST
Civil Twilight 6:45 AM EST 5:48 PM EST
Nautical Twilight 6:10 AM EST 6:23 PM EST
Astronomical Twilight 5:36 AM EST 6:57 PM EST
Moon 9:53 PM EST (11/4) 12:01 PM EST (11/4)
Length of Visible Light 11h 03m
Length of Day
10h 02m
Waning Gibbous, 72% of the Moon is Illuminated
Nov 4
Waning Gibbous
Nov 6
Last Quarter
Nov 13
New
Nov 20
First Quarter
Nov 28
Full

Hourly Weather History & Observations

Time (EST) Temp. Windchill Dew Point Humidity Pressure Visibility Wind Dir Wind Speed Gust Speed Precip Events Conditions
12:13 AM 32.0 °F 26.4 °F 24.4 °F 74% 30.18 in 10.0 mi WNW 5.8 mph - N/A   Overcast
12:33 AM 31.6 °F 26.0 °F 24.4 °F 75% 30.17 in 10.0 mi WNW 5.8 mph - N/A   Overcast
12:53 AM 30.9 °F 26.2 °F 24.3 °F 76% 30.17 in 10.0 mi NW 4.6 mph - N/A   Overcast
1:13 AM 30.7 °F - 24.6 °F 78% 30.17 in 10.0 mi Calm Calm - N/A   Overcast
1:32 AM 30.6 °F - 24.4 °F 78% 30.18 in 10.0 mi Calm Calm - N/A   Overcast
1:53 AM 30.0 °F 26.5 °F 24.6 °F 80% 30.18 in 10.0 mi West 3.5 mph - N/A   Overcast
1:13 AM 30.6 °F 27.1 °F 24.8 °F 79% 30.18 in 10.0 mi West 3.5 mph - N/A   Overcast
1:32 AM 31.1 °F - 25.0 °F 78% 30.18 in 10.0 mi Calm Calm - N/A   Overcast
1:53 AM 32.0 °F 26.4 °F 25.5 °F 77% 30.18 in 10.0 mi WNW 5.8 mph - N/A   Overcast
2:13 AM 32.0 °F 26.4 °F 25.7 °F 78% 30.18 in 10.0 mi WNW 5.8 mph - N/A   Overcast
2:32 AM 32.0 °F 25.6 °F 25.9 °F 78% 30.18 in 10.0 mi WNW 6.9 mph - N/A   Overcast
2:53 AM 32.0 °F 26.4 °F 26.2 °F 79% 30.18 in 10.0 mi WNW 5.8 mph - N/A   Overcast
3:13 AM 32.2 °F 26.7 °F 26.2 °F 79% 30.18 in 10.0 mi NW 5.8 mph - N/A   Overcast
3:32 AM 32.2 °F 25.8 °F 26.4 °F 79% 30.17 in 10.0 mi NW 6.9 mph - N/A   Overcast
3:53 AM 32.7 °F 27.3 °F 26.6 °F 78% 30.17 in 10.0 mi NW 5.8 mph - N/A   Overcast
4:13 AM 32.9 °F 26.7 °F 26.6 °F 78% 30.17 in 10.0 mi NW 6.9 mph - N/A   Overcast
4:32 AM 32.9 °F 25.9 °F 27.1 °F 79% 30.17 in 10.0 mi NW 8.1 mph - N/A   Overcast
4:53 AM 33.1 °F 27.7 °F 27.3 °F 79% 30.17 in 10.0 mi NW 5.8 mph - N/A   Overcast
5:13 AM 33.1 °F 27.7 °F 27.3 °F 79% 30.17 in 10.0 mi WNW 5.8 mph - N/A   Overcast
5:32 AM 33.3 °F 28.9 °F 27.3 °F 79% 30.17 in 10.0 mi WNW 4.6 mph - N/A   Overcast
5:53 AM 33.4 °F 29.1 °F 27.5 °F 79% 30.18 in 10.0 mi NW 4.6 mph - N/A   Overcast
6:13 AM 33.4 °F 28.1 °F 27.5 °F 79% 30.18 in 10.0 mi WNW 5.8 mph - N/A   Overcast
6:32 AM 33.4 °F 27.3 °F 27.5 °F 79% 30.18 in 10.0 mi WNW 6.9 mph - N/A   Overcast
6:53 AM 33.8 °F 27.7 °F 27.3 °F 77% 30.18 in 10.0 mi NW 6.9 mph - N/A   Overcast
7:13 AM 33.8 °F 27.0 °F 27.3 °F 77% 30.19 in 10.0 mi WNW 8.1 mph - N/A   Overcast
7:32 AM 33.8 °F 27.7 °F 27.1 °F 77% 30.20 in 10.0 mi NW 6.9 mph - N/A   Overcast
7:53 AM 33.8 °F 28.6 °F 27.0 °F 76% 30.20 in 10.0 mi NW 5.8 mph - N/A   Overcast
8:13 AM 34.2 °F 26.2 °F 27.1 °F 75% 30.20 in 10.0 mi NW 10.4 mph - N/A   Overcast
8:32 AM 34.3 °F 27.7 °F 26.8 °F 74% 30.20 in 10.0 mi WNW 8.1 mph - N/A   Overcast
8:53 AM 34.7 °F 28.8 °F 26.6 °F 72% 30.20 in 10.0 mi WNW 6.9 mph - N/A   Overcast
9:13 AM 35.1 °F 28.6 °F 26.4 °F 71% 30.20 in 10.0 mi WNW 8.1 mph - N/A   Overcast
9:33 AM 35.1 °F 27.9 °F 26.1 °F 70% 30.20 in 10.0 mi NW 9.2 mph - N/A   Overcast
9:53 AM 35.8 °F 30.1 °F 26.1 °F 68% 30.20 in 10.0 mi WNW 6.9 mph - N/A   Overcast
10:13 AM 36.5 °F 29.7 °F 26.4 °F 67% 30.19 in 10.0 mi WNW 9.2 mph - N/A   Overcast
10:33 AM 36.7 °F 30.5 °F 26.2 °F 66% 30.19 in 10.0 mi NNW 8.1 mph - N/A   Overcast
10:53 AM 37.2 °F 31.9 °F 26.6 °F 65% 30.19 in 10.0 mi NW 6.9 mph - N/A   Overcast
11:12 AM 37.4 °F 31.4 °F 26.4 °F 65% 30.19 in 10.0 mi NW 8.1 mph - N/A   Overcast
11:33 AM 37.6 °F 31.0 °F 26.4 °F 64% 30.19 in 10.0 mi WNW 9.2 mph - N/A   Overcast
11:53 AM 37.8 °F 33.3 °F 26.1 °F 63% 30.18 in 10.0 mi NNW 5.8 mph - N/A   Overcast
12:13 PM 38.3 °F 32.5 °F 26.6 °F 63% 30.18 in 10.0 mi NW 8.1 mph - N/A   Overcast
12:33 PM 38.7 °F 32.9 °F 26.6 °F 62% 30.17 in 10.0 mi NW 8.1 mph - N/A   Overcast
12:53 PM 38.3 °F - 26.1 °F 61% 30.17 in 10.0 mi Calm Calm - N/A   Overcast
1:12 PM 38.3 °F - 25.9 °F 61% 30.16 in 10.0 mi Calm Calm - N/A   Overcast
1:33 PM 39.7 °F 34.9 °F 26.8 °F 60% 30.16 in 10.0 mi WNW 6.9 mph - N/A   Overcast
1:53 PM 40.1 °F 35.3 °F 26.6 °F 59% 30.16 in 10.0 mi North 6.9 mph - N/A   Overcast
2:12 PM 39.9 °F 35.8 °F 26.4 °F 59% 30.16 in 10.0 mi West 5.8 mph - N/A   Mostly Cloudy
2:33 PM 39.6 °F 35.4 °F 26.2 °F 59% 30.16 in 10.0 mi North 5.8 mph - N/A   Overcast
2:53 PM 39.7 °F 36.5 °F 26.6 °F 59% 30.16 in 10.0 mi NW 4.6 mph - N/A   Scattered Clouds
3:12 PM 39.9 °F 34.5 °F 26.6 °F 59% 30.16 in 10.0 mi NNE 8.1 mph - N/A   Scattered Clouds
3:33 PM 38.8 °F 34.6 °F 26.6 °F 61% 30.16 in 10.0 mi North 5.8 mph - N/A   Scattered Clouds
3:53 PM 38.3 °F 33.9 °F 26.6 °F 63% 30.16 in 10.0 mi NNE 5.8 mph - N/A   Clear
4:12 PM 38.5 °F 34.1 °F 26.6 °F 62% 30.16 in 10.0 mi North 5.8 mph - N/A   Clear
4:33 PM 38.7 °F 36.3 °F 26.4 °F 61% 30.16 in 10.0 mi NNE 3.5 mph - N/A   Clear
4:53 PM 37.6 °F 33.1 °F 26.4 °F 64% 30.16 in 10.0 mi NE 5.8 mph - N/A   Clear
5:12 PM 36.1 °F 30.6 °F 26.4 °F 68% 30.16 in 10.0 mi North 6.9 mph - N/A   Clear
5:33 PM 34.9 °F 30.8 °F 25.7 °F 69% 30.16 in 10.0 mi North 4.6 mph - N/A   Clear
5:53 PM 33.8 °F 29.6 °F 25.7 °F 72% 30.17 in 10.0 mi North 4.6 mph - N/A   Clear
6:12 PM 32.7 °F - 25.2 °F 74% 30.18 in 10.0 mi Calm Calm - N/A   Clear
6:33 PM 31.5 °F 25.8 °F 25.9 °F 80% 30.18 in 10.0 mi NNE 5.8 mph - N/A   Clear
6:53 PM 32.4 °F 26.0 °F 26.8 °F 80% 30.18 in 10.0 mi North 6.9 mph - N/A   Clear
7:12 PM 32.0 °F 25.6 °F 27.1 °F 82% 30.18 in 10.0 mi North 6.9 mph - N/A   Clear
7:33 PM 32.0 °F 25.6 °F 27.1 °F 82% 30.18 in 10.0 mi North 6.9 mph - N/A   Clear
7:53 PM 31.5 °F 24.9 °F 26.8 °F 83% 30.18 in 10.0 mi North 6.9 mph - N/A   Clear
8:12 PM 30.2 °F 23.4 °F 26.2 °F 85% 30.18 in 10.0 mi North 6.9 mph - N/A   Clear
8:33 PM 29.8 °F 23.9 °F 26.1 °F 86% 30.18 in 10.0 mi NNW 5.8 mph - N/A   Clear
8:53 PM 28.8 °F 22.6 °F 25.7 °F 88% 30.19 in 10.0 mi NNW 5.8 mph - N/A   Clear
9:12 PM 28.2 °F 21.0 °F 25.7 °F 90% 30.19 in 10.0 mi NW 6.9 mph - N/A   Clear
9:33 PM 27.5 °F 21.1 °F 25.3 °F 92% 30.19 in 10.0 mi NW 5.8 mph - N/A   Clear
9:53 PM 27.5 °F 20.2 °F 24.8 °F 90% 30.18 in 10.0 mi NW 6.9 mph - N/A   Clear
10:13 PM 26.8 °F 20.2 °F 24.4 °F 91% 30.18 in 10.0 mi NW 5.8 mph - N/A   Clear
10:33 PM 26.6 °F 20.0 °F 24.3 °F 91% 30.18 in 10.0 mi NNW 5.8 mph - N/A   Clear
10:53 PM 26.4 °F 20.9 °F 24.1 °F 91% 30.19 in 10.0 mi NW 4.6 mph - N/A   Clear